DIRECTV 10

Last updated on Thu Oct 30 2025 00:02:47 GMT+0000 (Coordinated Universal Time)

1 31862U 07032A 25302.49538675 -.00000094 00000+0 00000+0 0 9993 2 31862 0.0008 88.5336 0001057 129.7976 255.3309 1.00273580 43287
UTC large
Height (km)
Speed (km/s)
/
Latitude / Longitude
Inclination (degrees)
Orbital Period (minutes)
Azimuth
Elevation
Range (km)
Doppler Factor

Next 0 passes for location: London (51.5072 / 0.1276)

Sorry there are no passes over London.